Regional Weather Roundup
Issued by NWS

Home | Current Version | Previous Version | Text Only | Print | Product List | Glossary Off
Versions: 1 2 3 4 5 6 7 8 9 10 11 12 13 14 15 16 17 18 19 20 21 22 23 24 25 26 27 28 29 30 31 32 33 34 35 36 37 38 39 40 41 42 43 44 45 46 47 48 49 50

000
ASUS43 KMKX 210800
RWRWI

WISCONSIN REGIONAL WEATHER ROUNDUP
NATIONAL WEATHER SERVICE MILWAUKEE/SULLIVAN WI
200 AM CST TUE NOV 21 2017

NOTE: "FAIR" INDICATES FEW OR NO CLOUDS BELOW 12,000 FEET WITH NO
SIGNIFICANT WEATHER AND/OR OBSTRUCTIONS TO VISIBILITY.

WIZ001-002-006>008-014>016-023>028-210900-
NORTHWEST WISCONSIN

CITY           SKY/WX    TMP DP  RH WIND       PRES   REMARKS
SUPERIOR ARPT  MOCLDY    32  20  60 W18G28    29.46R WCI  20
ASHLAND        CLEAR     36  21  54 W24G36    29.38R WCI  24
HAYWARD        CLOUDY    37  23  56 W13G21    29.43R WCI  29
SIREN          CLEAR     35  22  60 W20G25    29.49R WCI  24
CUMBERLAND     CLEAR     34  25  69 W22G31    29.47R WCI  22
RICE LAKE      CLEAR     38  26  63 W13G29    29.49R WCI  30
CHETEK         CLEAR     38  26  61 W12G24    29.47R WCI  31
LADYSMITH      CLEAR     38  26  61 W22       29.46R WCI  28
EAU CLAIRE     CLEAR     39  25  57 W15G26    29.50R WCI  31
MENOMONIE      CLEAR     39  24  55 W16G25    29.52R WCI  31
NEW RICHMOND   CLEAR     36  24  60 W12G18    29.53R WCI  28
OSCEOLA        CLEAR     37  25  63 W13G20    29.56R WCI  28
$$

WIZ003>005-009-010-017-018-210900-
NORTH CENTRAL WISCONSIN

CITY           SKY/WX    TMP DP  RH WIND       PRES   REMARKS
MANITOWISH WTR CLOUDY    35  29  79 W12G22    29.32R WCI  26
ARBOR VITAE    CLEAR     37  29  74 W9G16     29.33R WCI  30
WOODRUFF       CLEAR     37  29  74 W9G16     29.33R WCI  30
RHINELANDER    CLEAR     38  28  67 W16G25    29.35R WCI  29
EAGLE RIVER    CLEAR     36  27  69 W14G20    29.32R WCI  27
LAND O LAKES   PTCLDY    37  28  71 W9        29.32R WCI  30
PHILLIPS       CLEAR     36  27  68 W15G23    29.37R WCI  27
TOMAHAWK       CLEAR     37  27  65 W6        29.37S WCI  33
MEDFORD        CLEAR     36  27  70 SW12G18   29.40S WCI  28
MERRILL        CLEAR     37  28  69 SW9       29.40S WCI  31
$$

WIZ029-030-035-036-043>047-210900-
CENTRAL WISCONSIN

CITY           SKY/WX    TMP DP  RH WIND       PRES   REMARKS
WAUSAU         CLEAR     40  27  59 W14       29.41R WCI  32
MOSINEE        CLEAR     37  28  70 W14G21    29.44R WCI  29
MARSHFIELD     CLEAR     38  26  62 SW13      29.45R WCI  30
STEVENS POINT  CLEAR     42  26  54 SW12G18   29.45R
WAUPACA        PTCLDY    45  29  54 SW10      29.46S
WAUTOMA        PTCLDY    44  28  53 SW12      29.49S
WISC RAPIDS    CLEAR     42  27  55 W10G20    29.49R
CAMP DOUGLAS   CLEAR    N/A N/A N/A W14       29.52R
$$

WIZ011>013-019>022-031-037>040-048>050-210900-
NORTHEAST WISCONSIN

CITY           SKY/WX    TMP DP  RH WIND       PRES   REMARKS
ANTIGO         CLEAR     36  28  72 SW13      29.38S WCI  28
SHAWANO        CLEAR     45  29  54 SW8       29.41S
OCONTO         CLEAR     44  30  58 SW8       29.41S
STURGEON BAY   CLOUDY    46  31  55 SW15      29.41S
GREEN BAY      PTCLDY    42  33  70 SW10      29.45R
MANITOWOC      CLOUDY    48  32  53 SW13G22   29.48R
APPLETON       PTCLDY    43  28  56 SW12      29.45S
CLINTONVILLE   CLEAR     45  28  53 SW10      29.44R
OSHKOSH        CLOUDY    44  31  60 SW8       29.48S
$$

WIZ032>034-041-042-053>061-210900-
SOUTHWEST WISCONSIN

CITY           SKY/WX    TMP DP  RH WIND       PRES   REMARKS
LA CROSSE      CLEAR     43  28  55 W10       29.56R
SPARTA         CLEAR     43  29  59 W8        29.54R
VIROQUA        CLEAR     40  31  69 W14       29.56R WCI  32
BOSCOBEL       CLEAR     43  29  57 S6        29.60R
PRAIRIE DU CHI PTCLDY    44  28  53 NW3       29.61R
PLATTEVILLE    PTCLDY    40  32  71 SW6       29.59F
$$

WIZ056-057-062-063-064-067-068-210900-
SOUTH CENTRAL WISCONSIN

CITY           SKY/WX    TMP DP  RH WIND       PRES   REMARKS
REEDSBURG      PTCLDY    43  29  57 SW8       29.54R
BARABOO/DELLS  PTCLDY    44  29  56 SW10      29.54R
LONE ROCK      NOT AVBL
MINERAL POINT  PTCLDY    45  32  61 SW8       29.57S
MADISON        PTCLDY    46  32  58 SW9G20    29.56R
MIDDLETON      PTCLDY    47  32  55 SW14G20   29.56S
WATERTOWN      CLOUDY    44  33  65 SW9       29.55R
MONROE         PTCLDY    45  32  61 SW21      29.58S
JANESVILLE     MOCLDY    45  32  61 SW13      29.58S
$$

WIZ051-052-058>065-066-070>072-210900-
SOUTHEAST WISCONSIN

CITY           SKY/WX    TMP DP  RH WIND       PRES   REMARKS
MILWAUKEE      CLOUDY    45  32  60 SW18G24   29.57S
WAUKESHA       PTCLDY    43  30  61 SW10      29.57S
MILWAUKEE/TIMM MOCLDY    43  30  61 SW14G20   29.56S
RACINE         CLOUDY    46  31  55 SW16G28   29.60S
BURLINGTON     PTCLDY    44  36  75 SW13G22   29.58F
KENOSHA        CLOUDY    46  31  55 SW16G30   29.59F
FOND DU LAC    CLOUDY    44  30  57 SW10      29.51R
SHEBOYGAN      MOCLDY    47  33  58 SW15G26   29.50R
WEST BEND      PTCLDY    45  30  57 SW13G20   29.53R
JUNEAU         CLOUDY    42  32  69 SW9       29.55S
$$

LSZ147-162-210900-
LAKE SUPERIOR

STATION/POSITION TIME  TEMP    WIND        PRES    WAVE
                       AIR SEA DIR/SP/G            HT/PER
                 (UTC) (F)     (DEG/KT/KT) (MB)    (FT/S)
DEVILS ISLAND    0700   40     260/ 34/ 39  991.9R
SAXON HARBOR     0730   40     270/ 10/ 17  993.2R
$$

LMZ867-665-643>646-210900-
LAKE MICHIGAN

STATION/POSITION TIME  TEMP    WIND        PRES    WAVE
                       AIR SEA DIR/SP/G            HT/PER
                 (UTC) (F)     (DEG/KT/KT) (MB)    (FT/S)
N MID LAKE BUOY  0650   49 48  210/ 25/ 31  994.4F  12/ 8
NORTHPORT PIER   0740   48     230/ 10/ 20  994.6S
KEWAUNEE LAKESHO 0730   48     240/ 11/ 19  996.4R
SHEBOYGAN LAKESH 0700   50     240/ 19/ 22  998.7F
PORT WASHINGTON  0740   49     250/ 12/ 20 1001.0R
MILWAUKEE LAKESH 0730   46     230/ 19/ 22   N/A
S MID LAKE BUOY  0650   47 48  230/ 27/ 31 1002.7F   9/ 7
KENOSHA   LAKESH 0700   48     220/ 16/ 24 1002.7
$$

TC  - TEMPERATURE IN CELSIUS
VSB - VISIBILITY IN STATUTE MILES
WCI - WIND CHILL INDEX
HX  - HEAT INDEX




USA.gov is the U.S. government's official web portal to all federal, state and local government web resources and services.